Location: Granada Hills
(34.2650°N, 118.5220°W)
Time: 01:39:03
(UTC-07:00)

deb Kosmos-1763 - Visible Passes

Search period start: 28 July 2016 00:00
Search period end: 07 August 2016 00:00
Orbit: 507 x 528 km, 74.0° (Epoch: 27 July)

Date Brightness Start Highest point End Pass type
(mag) Time Alt. Az. Time Alt. Az. Time Alt. Az.
29 Jul 7.6 00:25:43 10° NNW 00:25:44 10° NNW 00:25:44 10° NNW visible
30 Jul 7.6 00:10:55 10° NNW 00:11:03 11° NNW 00:11:03 11° NNW visible
30 Jul 7.5 23:56:07 10° NNW 23:56:24 12° NNW 23:56:24 12° NNW visible
31 Jul 7.3 23:41:17 10° N 23:41:45 13° N 23:41:45 13° N visible
01 Aug 7.2 23:26:28 10° N 23:27:07 14° N 23:27:07 14° N visible
02 Aug 7.0 23:11:40 10° N 23:12:31 16° N 23:12:31 16° N visible
03 Aug 6.8 22:56:50 10° N 22:57:56 18° N 22:57:56 18° N visible
04 Aug 6.5 22:42:01 10° N 22:43:22 20° N 22:43:22 20° N visible
05 Aug 6.3 22:27:12 10° N 22:28:49 22° N 22:28:49 22° N visible
06 Aug 6.0 22:12:21 10° N 22:14:18 25° NNE 22:14:18 25° NNE visible
